DW6440 Weather Reports


Display with metric or nautical units.
time (UTC)temp
F
wind
direction
speed
MPH
gust
MPH
rain 1hr
in
rain 24hr
in
rain mn
in
humidity
%
barometer
mb
20260906154445 76 321 5.0 10.0 0.00 0.00 0.00 74 1015.6
20260906153947 75 13 5.0 11.0 0.00 0.00 0.00 72 1015.6
20260906153718 75 355 5.0 11.0 0.00 0.00 0.00 72 1015.7
20260906152944 75 29 5.0 12.0 0.00 0.00 0.00 73 1015.6
20260906152706 75 344 5.0 12.0 0.00 0.00 0.00 74 1015.6
20260906151946 74 344 4.0 11.0 0.00 0.00 0.00 74 1015.7
20260906151446 74 5 5.0 12.0 0.00 0.00 0.00 73 1015.6
20260906151207 74 355 5.0 12.0 0.00 0.00 0.00 73 1015.7
20260906150446 74 350 5.0 11.0 0.00 0.00 0.00 74 1015.7
20260906145943 74 341 6.0 12.0 0.00 0.00 0.00 74 1015.7
20260906145443 74 331 5.0 12.0 0.00 0.00 0.00 73 1015.7
20260906144943 74 20 5.0 10.0 0.00 0.00 0.00 75 1015.6
20260906144440 74 20 5.0 10.0 0.00 0.00 0.00 74 1015.5
20260906143941 74 355 4.0 10.0 0.00 0.00 0.00 75 1015.4
20260906143443 73 355 3.0 9.0 0.00 0.00 0.00 77 1015.4
20260906142941 73 22 4.0 9.0 0.00 0.00 0.00 75 1015.5
20260906142656 73 340 4.0 11.0 0.00 0.00 0.00 76 1015.5
20260906141937 72 5 4.0 11.0 0.00 0.00 0.00 76 1015.4
20260906141435 73 355 4.0 8.0 0.00 0.00 0.00 77 1015.3
20260906140933 72 22 4.0 6.0 0.00 0.00 0.00 77 1015.2
20260906140427 71 5 3.0 6.0 0.00 0.00 0.00 77 1015.2
20260906140149 72 51 3.0 8.0 0.00 0.00 0.00 79 1015.1
20260906135424 71 48 3.0 8.0 0.00 0.00 0.00 79 1015.3
20260906134925 71 40 4.0 8.0 0.00 0.00 0.00 81 1015.3
20260906134425 71 46 4.0 9.0 0.00 0.00 0.00 81 1015.3
20260906134149 70 17 4.0 9.0 0.00 0.00 0.00 81 1015.4
20260906133428 70 47 3.0 8.0 0.00 0.00 0.00 82 1015.3
20260906132927 70 5 3.0 8.0 0.00 0.00 0.00 84 1015.3
20260906132426 69 19 2.0 8.0 0.00 0.00 0.00 83 1015.2
20260906131926 69 342 1.0 5.0 0.00 0.00 0.00 83 1015.2
20260906131424 68 337 1.0 4.0 0.00 0.00 0.00 84 1015.2
20260906130925 68 337 2.0 5.0 0.00 0.00 0.00 85 1015.3
20260906130646 67 337 2.0 5.0 0.00 0.00 0.00 86 1015.3
20260906125923 67 336 2.0 5.0 0.00 0.00 0.00 88 1015.2
20260906125912 66 351 2.0 5.0 0.00 0.00 0.00 89 1015.3
20260906124920 66 355 2.0 4.0 0.00 0.00 0.00 89 1015.3
20260906124421 65 343 2.0 5.0 0.00 0.00 0.00 90 1015.2
20260906124146 65 343 3.0 5.0 0.00 0.00 0.00 91 1015.2
20260906123642 65 350 3.0 5.0 0.00 0.00 0.00 92 1015.2
20260906122917 64 0 2.0 5.0 0.00 0.00 0.00 92 1015.2
20260906122419 64 17 1.0 4.0 0.00 0.00 0.00 93 1015.1
20260906121915 63 22 0.0 3.0 0.00 0.00 0.00 93 1015.1
20260906121415 63 22 0.0 0.0 0.00 0.00 0.00 94 1015.0
20260906121134 62 22 0.0 0.0 0.00 0.00 0.00 94 1015.0
20260906120411 62 22 0.0 0.0 0.00 0.00 0.00 94 1015.0
20260906115910 61 22 0.0 0.0 0.00 0.00 0.00 94 1014.9
20260906115411 61 22 0.0 0.0 0.00 0.00 0.00 94 1014.8
20260906114912 60 22 0.0 0.0 0.00 0.00 0.00 94 1014.8
20260906114411 60 22 0.0 0.0 0.00 0.00 0.00 94 1014.8
20260906113911 60 22 0.0 0.0 0.00 0.00 0.00 94 1014.8
20260906113632 59 22 0.0 0.0 0.00 0.00 0.00 94 1014.7
20260906112911 59 22 0.0 0.0 0.00 0.00 0.00 94 1014.6
20260906112414 58 22 0.0 0.0 0.00 0.00 0.00 94 1014.5
20260906111911 58 22 0.0 0.0 0.00 0.00 0.00 94 1014.5
20260906111409 58 22 0.0 1.0 0.00 0.00 0.00 94 1014.5
20260906111132 58 22 0.0 1.0 0.00 0.00 0.00 94 1014.4
20260906110410 58 22 0.0 1.0 0.00 0.00 0.00 94 1014.4
20260906105910 58 22 0.0 0.0 0.00 0.00 0.00 94 1014.4
20260906105850 58 22 0.0 0.0 0.00 0.00 0.00 94 1014.2
20260906104911 58 22 0.0 0.0 0.00 0.00 0.00 94 1014.1
20260906104853 58 22 0.0 0.0 0.00 0.00 0.00 94 1014.1
20260906104505 58 22 0.0 0.0 0.00 0.00 0.00 94 1014.1
20260906103405 58 22 0.0 0.0 0.00 0.00 0.00 94 1013.8
20260906102905 58 22 0.0 0.0 0.00 0.00 0.00 94 1013.7
20260906102405 58 22 0.0 0.0 0.00 0.00 0.00 94 1013.8
20260906101904 58 22 0.0 0.0 0.00 0.00 0.00 94 1013.8
20260906101403 58 22 0.0 1.0 0.00 0.00 0.00 94 1013.7
20260906101130 58 22 0.0 3.0 0.00 0.00 0.00 94 1013.7
20260906100853 58 22 0.0 3.0 0.00 0.00 0.00 94 1013.7
20260906100122 58 22 0.0 0.0 0.00 0.00 0.00 94 1013.6
20260906095359 58 22 0.0 0.0 0.00 0.00 0.00 94 1013.5
20260906094856 58 22 0.0 0.0 0.00 0.00 0.00 94 1013.4
20260906094357 58 22 0.0 0.0 0.00 0.00 0.00 94 1013.4
20260906093854 58 22 0.0 0.0 0.00 0.00 0.00 94 1013.4
20260906093354 58 22 0.0 0.0 0.00 0.00 0.00 94 1013.4
20260906092853 58 22 0.0 0.0 0.00 0.00 0.00 94 1013.4
20260906092354 58 22 0.0 0.0 0.00 0.00 0.00 94 1013.3
20260906091849 58 22 0.0 0.0 0.00 0.00 0.00 94 1013.2
20260906091605 58 22 0.0 0.0 0.00 0.00 0.00 94 1013.1
20260906090848 58 22 0.0 0.0 0.00 0.00 0.00 94 1013.1
20260906090349 58 22 0.0 0.0 0.00 0.00 0.00 94 1013.0
20260906085850 58 22 0.0 0.0 0.00 0.00 0.00 94 1012.9
20260906085350 58 22 0.0 0.0 0.00 0.00 0.00 94 1012.8
20260906084848 59 22 0.0 0.0 0.00 0.00 0.00 94 1012.7
20260906084348 58 22 0.0 0.0 0.00 0.00 0.00 94 1012.7
20260906083848 58 22 0.0 0.0 0.00 0.00 0.00 94 1012.6
20260906083347 58 22 0.0 0.0 0.00 0.00 0.00 94 1012.6
20260906082846 59 22 0.0 0.0 0.00 0.00 0.00 94 1012.6
20260906082347 58 22 0.0 0.0 0.00 0.00 0.00 93 1012.5
20260906081845 59 22 0.0 0.0 0.00 0.00 0.00 94 1012.5
20260906081344 59 22 0.0 0.0 0.00 0.00 0.00 94 1012.5
20260906080840 59 22 0.0 0.0 0.00 0.00 0.00 94 1012.5
20260906080338 59 22 0.0 0.0 0.00 0.00 0.00 94 1012.5
20260906075841 59 22 0.0 0.0 0.00 0.00 0.00 94 1012.4
20260906075339 59 22 0.0 0.0 0.00 0.00 0.00 94 1012.5
20260906074837 59 22 0.0 0.0 0.00 0.00 0.00 93 1012.5
20260906074334 59 22 0.0 0.0 0.00 0.00 0.00 93 1012.5
20260906073830 59 22 0.0 0.0 0.00 0.00 0.00 93 1012.4
20260906073330 59 22 0.0 0.0 0.00 0.00 0.00 93 1012.4
20260906072830 59 22 0.0 0.0 0.00 0.00 0.00 93 1012.5
20260906072330 59 22 0.0 0.0 0.00 0.00 0.00 93 1012.6
20260906071826 59 22 0.0 0.0 0.00 0.00 0.00 93 1012.5
20260906071324 60 22 0.0 0.0 0.00 0.00 0.00 93 1012.5
20260906071308 60 22 0.0 0.0 0.00 0.00 0.00 93 1012.6
20260906070553 60 22 0.0 0.0 0.00 0.00 0.00 93 1012.6
20260906065824 60 22 0.0 0.0 0.00 0.00 0.00 93 1012.6
20260906065320 60 22 0.0 0.0 0.00 0.00 0.00 93 1012.6
20260906064818 60 22 0.0 0.0 0.00 0.00 0.00 93 1012.5
20260906064537 60 22 0.0 0.0 0.00 0.00 0.00 93 1012.5
20260906063816 60 22 0.0 0.0 0.00 0.00 0.00 93 1012.6
20260906063316 60 22 0.0 1.0 0.00 0.00 0.00 93 1012.5
20260906062817 60 22 0.0 2.0 0.00 0.00 0.00 93 1012.6
20260906062317 60 22 0.0 2.0 0.00 0.00 0.00 93 1012.6
20260906061812 60 22 0.0 0.0 0.00 0.00 0.00 93 1012.6
20260906061311 60 22 0.0 0.0 0.00 0.00 0.00 93 1012.7
20260906060813 60 22 0.0 0.0 0.00 0.00 0.00 93 1012.7
20260906060533 60 22 0.0 0.0 0.00 0.00 0.00 93 1012.7
20260906055809 60 22 0.0 0.0 0.00 0.00 0.00 93 1012.7
20260906055306 60 22 0.0 0.0 0.00 0.00 0.00 93 1012.7
20260906054756 60 22 0.0 0.0 0.00 0.00 0.00 93 1012.7
20260906054250 60 22 0.0 0.0 0.00 0.00 0.00 93 1012.7
20260906053749 60 22 0.0 0.0 0.00 0.00 0.00 93 1012.8
20260906053248 60 22 0.0 0.0 0.00 0.00 0.00 93 1012.8
20260906053008 60 22 0.0 0.0 0.00 0.00 0.00 93 1012.9
20260906052245 60 22 0.0 0.0 0.00 0.00 0.00 93 1012.9
20260906051746 60 22 0.0 0.0 0.00 0.00 0.00 93 1012.9
20260906051733 61 22 0.0 0.0 0.00 0.00 0.00 93 1013.0
20260906050743 61 22 0.0 0.0 0.00 0.00 0.00 93 1013.1
20260906050240 61 22 0.0 0.0 0.00 0.00 0.00 93 1013.1
20260906045739 61 22 0.0 0.0 0.00 0.00 0.00 93 1013.0
20260906045238 61 22 0.0 0.0 0.00 0.00 0.00 93 1012.9
20260906044734 61 22 0.0 0.0 0.00 0.00 0.00 93 1013.0
20260906044232 61 22 0.0 0.0 0.00 0.00 0.00 93 1013.0
20260906043734 61 22 0.0 0.0 0.00 0.00 0.00 93 1013.1
20260906043232 62 22 0.0 0.0 0.00 0.00 0.00 93 1013.1
20260906042950 62 22 0.0 0.0 0.00 0.00 0.00 93 1013.0
20260906042224 61 22 0.0 0.0 0.00 0.00 0.00 93 1013.1
20260906041725 62 22 0.0 0.0 0.00 0.00 0.00 92 1013.1
20260906041225 62 22 0.0 0.0 0.00 0.00 0.00 92 1013.1
20260906040951 62 22 0.0 0.0 0.00 0.00 0.00 92 1013.1
20260906040224 62 22 0.0 0.0 0.00 0.00 0.00 93 1013.2
20260906035726 62 22 0.0 0.0 0.00 0.00 0.00 92 1013.2
20260906035438 62 22 0.0 0.0 0.00 0.00 0.00 92 1013.1
20260906034718 62 22 0.0 0.0 0.00 0.00 0.00 92 1013.0
20260906034436 62 22 0.0 0.0 0.00 0.00 0.00 92 1013.0
20260906033708 62 22 0.0 0.0 0.00 0.00 0.00 92 1012.9
20260906033210 62 22 0.0 0.0 0.00 0.00 0.00 92 1012.9
20260906032708 62 22 0.0 0.0 0.00 0.00 0.00 92 1013.0
20260906032210 62 22 0.0 0.0 0.00 0.00 0.00 92 1013.0
20260906031705 62 22 0.0 0.0 0.00 0.00 0.00 92 1012.9
20260906031207 63 22 0.0 0.0 0.00 0.00 0.00 92 1012.8
20260906030931 63 22 0.0 0.0 0.00 0.00 0.00 92 1012.8
20260906030209 63 22 0.0 0.0 0.00 0.00 0.00 92 1012.9
20260906025705 63 22 0.0 0.0 0.00 0.00 0.00 92 1012.8
20260906025203 63 22 0.0 1.0 0.00 0.00 0.00 92 1012.8
20260906024701 63 22 0.0 1.0 0.00 0.00 0.00 92 1012.8
20260906024200 63 22 0.0 0.0 0.00 0.00 0.00 92 1012.8
20260906023701 63 22 0.0 1.0 0.00 0.00 0.00 92 1012.8
20260906023427 63 22 0.0 1.0 0.00 0.00 0.00 92 1012.7
20260906022658 64 22 0.0 1.0 0.00 0.00 0.00 92 1012.6
20260906022200 64 22 0.0 0.0 0.00 0.00 0.00 92 1012.5
20260906021659 64 22 0.0 0.0 0.00 0.00 0.00 91 1012.6
20260906021159 64 22 0.0 1.0 0.00 0.00 0.00 91 1012.5
20260906020658 64 22 0.0 1.0 0.00 0.00 0.00 91 1012.6
20260906020156 64 22 0.0 1.0 0.00 0.00 0.00 91 1012.4
20260906015917 64 22 0.0 0.0 0.00 0.00 0.00 91 1012.4
20260906015159 64 22 0.0 0.0 0.00 0.00 0.00 91 1012.5
20260906014657 64 22 0.0 0.0 0.00 0.00 0.00 91 1012.4
20260906014153 64 22 0.0 0.0 0.00 0.00 0.00 91 1012.4
20260906013653 64 22 0.0 0.0 0.00 0.00 0.00 90 1012.4
20260906013153 65 22 0.0 0.0 0.00 0.00 0.00 90 1012.4
20260906012650 65 22 0.0 1.0 0.00 0.00 0.00 90 1012.3
20260906012415 65 22 0.0 1.0 0.00 0.00 0.00 90 1012.3
20260906011647 65 22 0.0 0.0 0.00 0.00 0.00 90 1012.2
20260906011144 65 22 0.0 0.0 0.00 0.00 0.00 90 1012.1
20260906010641 66 22 0.0 1.0 0.00 0.00 0.00 89 1012.1
20260906010419 65 22 0.0 1.0 0.00 0.00 0.00 89 1012.1
20260906005643 65 22 0.0 0.0 0.00 0.00 0.00 89 1012.0
20260906005408 66 22 0.0 0.0 0.00 0.00 0.00 88 1011.9
20260906004646 66 22 0.0 0.0 0.00 0.00 0.00 88 1011.8
20260906004146 66 22 0.0 0.0 0.00 0.00 0.00 88 1011.9
20260906003642 66 22 0.0 0.0 0.00 0.00 0.00 88 1011.8
20260906003142 67 22 0.0 0.0 0.00 0.00 0.00 87 1011.6
20260906002643 67 22 0.0 0.0 0.00 0.00 0.00 86 1011.5
20260906002141 67 22 0.0 0.0 0.00 0.00 0.00 86 1011.5
20260906001641 67 22 0.0 0.0 0.00 0.00 0.00 86 1011.5
20260906001142 68 22 0.0 0.0 0.00 0.00 0.00 86 1011.5
20260906000643 68 22 0.0 0.0 0.00 0.00 0.00 85 1011.5
20260906000142 69 22 0.0 0.0 0.00 0.00 0.00 84 1011.4
20260905235641 69 22 0.0 0.0 0.00 0.00 0.00 82 1011.3
20260905235143 69 22 0.0 1.0 0.00 0.00 0.00 82 1011.2
20260905234906 69 22 0.0 1.0 0.00 0.00 0.00 81 1011.2
20260905234143 70 22 0.0 0.0 0.00 0.00 0.00 80 1011.2
20260905233641 71 22 0.0 0.0 0.00 0.00 0.00 78 1011.2
20260905233154 71 22 0.0 1.0 0.00 0.00 0.00 76 1011.2
20260905233127 72 22 0.0 2.0 0.00 0.00 0.00 75 1011.1
20260905232141 73 22 1.0 2.0 0.00 0.00 0.00 71 1011.1
20260905231640 74 22 1.0 2.0 0.00 0.00 0.00 69 1011.0
20260905231142 74 22 1.0 2.0 0.00 0.00 0.00 68 1010.9
20260905230643 75 22 2.0 4.0 0.00 0.00 0.00 66 1010.9
20260905230358 76 22 2.0 4.0 0.00 0.00 0.00 63 1010.9
20260905225640 76 26 1.0 3.0 0.00 0.00 0.00 63 1011.0
20260905225138 76 26 2.0 3.0 0.00 0.00 0.00 64 1011.0
20260905224637 76 26 2.0 5.0 0.00 0.00 0.00 62 1011.0
20260905224137 77 26 2.0 5.0 0.00 0.00 0.00 62 1010.9
20260905223638 77 26 2.0 5.0 0.00 0.00 0.00 62 1010.9
20260905223140 77 11 1.0 4.0 0.00 0.00 0.00 61 1010.9
20260905222639 77 11 1.0 4.0 0.00 0.00 0.00 60 1010.8
20260905222133 78 9 3.0 8.0 0.00 0.00 0.00 59 1010.8
20260905221630 78 9 3.0 8.0 0.00 0.00 0.00 58 1010.9
20260905221134 78 11 2.0 4.0 0.00 0.00 0.00 59 1010.8
20260905220629 78 11 2.0 5.0 0.00 0.00 0.00 61 1010.8
20260905220130 78 11 3.0 5.0 0.00 0.00 0.00 60 1010.8
20260905215630 78 14 3.0 7.0 0.00 0.00 0.00 60 1010.7
20260905215130 78 12 3.0 7.0 0.00 0.00 0.00 61 1010.6
20260905214629 78 28 3.0 6.0 0.00 0.00 0.00 61 1010.6
20260905214613 78 11 3.0 7.0 0.00 0.00 0.00 61 1010.6
20260905213851 78 5 3.0 9.0 0.00 0.00 0.00 61 1010.5
20260905213129 78 355 4.0 9.0 0.00 0.00 0.00 62 1010.6
20260905212628 77 13 3.0 8.0 0.00 0.00 0.00 62 1010.7
20260905212353 77 5 3.0 7.0 0.00 0.00 0.00 63 1010.6
20260905211630 77 355 3.0 9.0 0.00 0.00 0.00 63 1010.6
20260905211130 78 19 4.0 11.0 0.00 0.00 0.00 62 1010.6
20260905210633 79 345 4.0 11.0 0.00 0.00 0.00 62 1010.6
20260905210130 79 44 3.0 11.0 0.00 0.00 0.00 60 1010.5
20260905205846 79 44 3.0 8.0 0.00 0.00 0.00 60 1010.5
20260905205128 78 14 4.0 11.0 0.00 0.00 0.00 62 1010.5
20260905204627 77 344 4.0 11.0 0.00 0.00 0.00 61 1010.5
20260905204128 77 326 3.0 9.0 0.00 0.00 0.00 62 1010.5
20260905204120 77 28 5.0 11.0 0.00 0.00 0.00 63 1010.5
20260905203354 78 5 5.0 11.0 0.00 0.00 0.00 60 1010.4
20260905202630 79 20 4.0 10.0 0.00 0.00 0.00 58 1010.4
20260905202127 80 9 4.0 11.0 0.00 0.00 0.00 56 1010.4
20260905201643 81 5 5.0 11.0 0.00 0.00 0.00 57 1010.4
20260905201128 81 315 3.0 9.0 0.00 0.00 0.00 57 1010.5
20260905200628 81 16 2.0 9.0 0.00 0.00 0.00 57 1010.5
20260905200127 80 0 2.0 8.0 0.00 0.00 0.00 60 1010.5
20260905195627 80 0 2.0 8.0 0.00 0.00 0.00 60 1010.6
20260905195127 80 300 2.0 7.0 0.00 0.00 0.00 59 1010.6
20260905194846 79 355 3.0 8.0 0.00 0.00 0.00 62 1010.7
20260905194128 78 346 3.0 8.0 0.00 0.00 0.00 62 1010.7
20260905193627 78 0 3.0 6.0 0.00 0.00 0.00 63 1010.7
20260905193337 79 13 4.0 9.0 0.00 0.00 0.00 61 1010.8
20260905192611 80 351 3.0 9.0 0.00 0.00 0.00 58 1010.8
20260905192326 81 331 3.0 8.0 0.00 0.00 0.00 59 1010.8
20260905191611 81 340 3.0 8.0 0.00 0.00 0.00 59 1010.9
20260905191110 80 304 3.0 8.0 0.00 0.00 0.00 59 1010.9
20260905190607 80 259 2.0 8.0 0.00 0.00 0.00 61 1010.9
20260905190122 80 263 2.0 6.0 0.00 0.00 0.00 61 1011.0
20260905185607 80 296 3.0 8.0 0.00 0.00 0.00 61 1011.0
20260905185105 80 345 2.0 8.0 0.00 0.00 0.00 62 1011.0
20260905184604 79 309 2.0 6.0 0.00 0.00 0.00 64 1011.1
20260905184325 79 323 2.0 6.0 0.00 0.00 0.00 64 1011.0
20260905183606 78 282 2.0 6.0 0.00 0.00 0.00 64 1011.1
20260905183105 78 298 2.0 6.0 0.00 0.00 0.00 65 1011.2
20260905182606 78 13 3.0 6.0 0.00 0.00 0.00 65 1011.2
20260905182104 78 346 3.0 10.0 0.00 0.00 0.00 65 1011.1
20260905181605 79 42 4.0 10.0 0.00 0.00 0.00 66 1011.1
20260905181111 80 11 4.0 9.0 0.00 0.00 0.00 63 1011.1
20260905180612 79 345 4.0 10.0 0.00 0.00 0.00 61 1011.2
20260905180112 80 340 4.0 10.0 0.00 0.00 0.00 62 1011.3
20260905175608 79 334 4.0 8.0 0.00 0.00 0.00 63 1011.3
20260905175105 78 355 4.0 11.0 0.00 0.00 0.00 62 1011.2
20260905174556 79 346 3.0 11.0 0.00 0.00 0.00 61 1011.3
20260905174314 79 330 4.0 10.0 0.00 0.00 0.00 62 1011.3
20260905173541 79 355 4.0 10.0 0.00 0.00 0.00 61 1011.4
20260905173046 79 15 4.0 13.0 0.00 0.00 0.00 61 1011.4
20260905172543 79 42 4.0 13.0 0.00 0.00 0.00 62 1011.4
20260905172039 79 59 3.0 9.0 0.00 0.00 0.00 62 1011.4
20260905171541 78 5 3.0 6.0 0.00 0.00 0.00 66 1011.5
20260905171040 78 342 3.0 9.0 0.00 0.00 0.00 64 1011.6
20260905170541 78 355 3.0 9.0 0.00 0.00 0.00 65 1011.7
20260905170040 79 355 3.0 9.0 0.00 0.00 0.00 65 1011.7
20260905165804 79 273 2.0 7.0 0.00 0.00 0.00 64 1011.7
20260905165039 78 270 3.0 9.0 0.00 0.00 0.00 63 1011.8
20260905164540 78 263 4.0 9.0 0.00 0.00 0.00 65 1011.8
20260905164038 78 315 4.0 11.0 0.00 0.00 0.00 65 1011.8
20260905163538 77 337 4.0 11.0 0.00 0.00 0.00 67 1011.8
20260905163039 77 329 2.0 6.0 0.00 0.00 0.00 65 1011.8
20260905162538 77 317 4.0 10.0 0.00 0.00 0.00 67 1011.9
20260905162039 77 0 4.0 10.0 0.00 0.00 0.00 64 1012.0
20260905161539 78 5 3.0 10.0 0.00 0.00 0.00 64 1012.1
20260905161313 77 350 3.0 10.0 0.00 0.00 0.00 65 1012.2
20260905160539 78 9 2.0 8.0 0.00 0.00 0.00 65 1012.3
20260905160034 78 17 3.0 8.0 0.00 0.00 0.00 69 1012.2
20260905155532 77 17 4.0 10.0 0.00 0.00 0.00 66 1012.3
20260905155030 78 21 4.0 10.0 0.00 0.00 0.00 69 1012.3